Flag for Austria Weather past 2 weeks in Lustenau, Vorarlberg, Austria

Now
36 °F

Overcast.


Feels Like: 36 °F
Forecast: 29 / 43 °F
Wind: 1 mph from North

Location: Saint Gallen-Altenrhein

Current Time: Feb 28, 2015 at 3:11:27 AM

Latest Report: Feb 28, 2015 at 2:50 AM


Visibility: N/A

Pressure: 30.12 "Hg

Humidity: 93%

Dew point: 34 °F

Location of LustenauLocation

Historic Weather in Lustenau — Graph

°F

Lustenau temperature yesterday

Maximum temperature yesterday: 39 °F (at 5:20 PM)
Minimum temperature yesterday: 27 °F (at 12:50 AM)
Average temperature yesterday: 34 °F

Past Weeks' High & Low Weather Summary

 TemperatureHumidityPressure
High50 °F (Feb 20, 3:20 PM)100% (Feb 13, 1:20 AM)30.69 "Hg (Feb 13, 1:20 AM)
Low25 °F (Feb 13, 10:20 AM)42% (Feb 26, 4:50 PM)29.50 "Hg (Feb 21, 12:50 PM)
Average33 °F88%30.02 "Hg
* Reported Feb 13 1:20 AM — Feb 28 1:50 AM, Lustenau, Weather by CustomWeather, © 2015

Note: Actual official high and low records may vary slightly from our data, if they occured in-between our weather recording intervals... More about our weather records

Advertising

Lustenau weather history for previous 24 hours

 ConditionsComfort  
Time TempWeatherWind HumidityBarometerVisibility
1:50 AM
Sat, Feb 28
37 °FOvercast.5 mph87%30.15 "HgN/A
1:20 AM37 °FSprinkles. Partly cloudy.5 mph87%30.15 "HgN/A
12:50 AM37 °FLight rain. Passing clouds.7 mph87%30.15 "HgN/A
12:20 AM37 °FLight rain. Passing clouds.7 mph87%30.15 "HgN/A
11:50 PM
Fri, Feb 27
37 °FLight rain. Passing clouds.8 mph87%30.15 "HgN/A
11:20 PM37 °FLight rain. Partly cloudy.8 mph87%30.12 "HgN/A
10:50 PM37 °FLight rain. Passing clouds.9 mph87%30.12 "HgN/A
10:20 PM39 °FLight rain. Passing clouds.9 mph81%30.12 "HgN/A
9:50 PM39 °FLight rain. Passing clouds.9 mph81%30.12 "HgN/A
9:20 PM39 °FLight rain. Mostly cloudy.9 mph81%30.09 "HgN/A
8:50 PM37 °FLight rain. Mostly cloudy.12 mph87%30.09 "HgN/A
8:20 PM39 °FLight rain. Mostly cloudy.10 mph81%30.09 "HgN/A
7:50 PM39 °FLight rain. Mostly cloudy.10 mph87%30.07 "HgN/A
7:20 PM39 °FLight rain. Mostly cloudy.12 mph81%30.07 "HgN/A
6:50 PM39 °FLight rain. Mostly cloudy.12 mph87%30.04 "HgN/A
6:20 PM39 °FLight rain. Mostly cloudy.10 mph87%30.01 "HgN/A
5:50 PM39 °FLight rain. More clouds than sun.12 mph87%30.01 "HgN/A
5:20 PM39 °FLight rain. Broken clouds.9 mph87%29.98 "HgN/A
4:50 PM37 °FLight rain. Broken clouds.2 mph100%29.98 "Hg4 mi
4:20 PM36 °FRain. Overcast.2 mph100%29.95 "Hg4 mi
3:50 PM36 °FLight rain. Mostly cloudy.2 mph100%29.95 "Hg3 mi
3:20 PM36 °FLight rain. Mostly cloudy.3 mph100%29.92 "Hg3 mi
2:50 PM36 °FLight rain. Mostly cloudy.3 mph100%29.92 "Hg3 mi
2:20 PM36 °FLight rain. Partly sunny.3 mph100%29.89 "Hg3 mi
1:50 PM34 °FLight rain. Mostly cloudy.2 mph100%29.89 "Hg3 mi
1:20 PM34 °FLight rain. Mostly cloudy.2 mph100%29.89 "Hg3 mi
12:50 PM34 °FLight rain. Mostly cloudy.2 mph100%29.89 "Hg3 mi
12:20 PM34 °FLight rain. Mostly cloudy.3 mph100%29.86 "Hg3 mi
11:50 AM34 °FLight snow. Broken clouds.6 mph100%29.83 "Hg3 mi
11:20 AM34 °FLight snow. Broken clouds.6 mph100%29.83 "Hg3 mi
10:50 AM34 °FLight snow. Partly sunny.7 mph100%29.83 "Hg3 mi
10:20 AM34 °FLight snow. Partly sunny.7 mph100%29.83 "Hg3 mi
9:50 AM34 °FLight snow. Partly sunny.9 mph93%29.83 "Hg3 mi
9:20 AM34 °FLight snow. Partly sunny.13 mph93%29.83 "Hg3 mi
8:50 AM36 °FLight snow. Partly sunny.5 mph87%29.83 "Hg5 mi
8:20 AM34 °FLight snow. Partly sunny.2 mph81%29.83 "Hg5 mi
7:50 AM34 °FPartly sunny.1 mph87%29.83 "HgN/A
7:20 AM34 °FPartly sunny.2 mph81%29.83 "HgN/A
6:50 AM34 °FPassing clouds.2 mph81%29.83 "HgN/A
6:20 AM32 °FPassing clouds.1 mph87%29.83 "HgN/A
5:20 AM32 °FPassing clouds.2 mph87%29.83 "HgN/A
4:20 AM32 °FOvercast.3 mph87%29.83 "HgN/A
3:50 AM30 °FClear.3 mph86%29.83 "Hg10 mi
3:20 AM28 °FClear.2 mph86%29.86 "Hg10 mi
Weather by CustomWeather, © 2015

See weather overviewHow to use our weather pages